Date String (YYYY-MM-DD hh:mm:ss) UTC,Instrument flags,absolute air pressure of the measurement (hPa),sample flow rate (lpm),inlet stack bypass flow (lpm),air temperature of the measurement (°C),ambient temperature measured by the external sensor (°C),aerosol sample conditioner tube jacket temperature (°C),OPC LED temperature (°C),internal box temperature (°C),relative humidity of the measurement (%),span deviation,mass concentration of particles derived from Lorenz-Mie calculation of OPC scattering (μg/m³),mass concentration of particles derived from Lorenz-Mie calculation of OPC scattering (μg/m³),mass concentration of particles derived from Lorenz-Mie calculation of OPC scattering (μg/m³)
DateTimeUTC,F1_M11,P_M11,Q1_M11,Q2_M11,T1_M11,T2_M11,T3_M11,T4_M11,T5_M11,U1_M11,ZSPAN_M11,X0_M11,X2_M11,X1_M11
2023-06-22 23:00:00,SystemResetWarning,0831.3,5.00,000.00,031.3,027.6,000.0,039.3,031.5,33.6,0000.0,0008.56,0004.14,0003.45
2023-06-22 23:01:00,SystemResetWarning,0831.4,5.01,000.00,031.4,027.8,000.0,039.4,031.6,34.4,0000.0,0008.44,0004.11,0003.45
2023-06-22 23:02:00,SystemResetWarning,0831.4,5.00,000.00,031.4,028.0,000.0,039.4,031.6,34.4,0000.0,0008.44,0004.11,0003.46
2023-06-22 23:03:00,SystemResetWarning,0831.4,5.01,000.00,031.3,028.1,000.0,039.4,031.7,33.6,0000.0,0008.48,0004.08,0003.46
2023-06-22 23:04:00,SystemResetWarning,0831.4,4.98,000.00,031.3,028.2,000.0,039.5,031.7,33.2,0000.0,0008.70,0004.11,0003.47
2023-06-22 23:05:00,SystemResetWarning,0831.4,4.98,000.00,031.3,028.3,000.0,039.5,031.8,33.8,0000.0,0008.71,0004.08,0003.47
2023-06-22 23:06:00,SystemResetWarning,0831.5,5.00,000.00,031.3,028.4,000.0,039.5,031.8,33.2,0000.0,0009.82,0004.10,0003.46
2023-06-22 23:07:00,SystemResetWarning,0831.5,5.00,000.00,031.4,027.9,000.0,039.5,031.8,33.0,0000.0,0009.96,0004.07,0003.45
2023-06-22 23:08:00,SystemResetWarning,0831.4,5.00,000.00,031.3,026.0,000.0,039.4,031.7,33.0,0000.0,0010.26,0004.03,0003.44
2023-06-22 23:09:00,SystemResetWarning,0831.5,4.99,000.00,031.3,024.7,000.0,039.3,031.7,33.1,0000.0,0010.49,0004.03,0003.43
2023-06-22 23:10:00,SystemResetWarning,0831.4,5.01,000.00,031.2,024.6,000.0,039.3,031.4,33.3,0000.0,0010.15,0004.07,0003.44
2023-06-22 23:11:00,SystemResetWarning,0831.4,5.01,000.00,031.0,025.0,000.0,039.3,031.1,33.6,0000.0,0009.53,0004.04,0003.44
2023-06-22 23:12:00,SystemResetWarning,0831.4,5.00,000.00,030.9,025.5,000.0,039.3,031.2,34.1,0000.0,0009.40,0004.01,0003.45
2023-06-22 23:13:00,SystemResetWarning,0831.4,5.00,000.00,030.8,026.0,000.0,039.2,031.2,34.5,0000.0,0009.41,0004.01,0003.45
2023-06-22 23:14:00,SystemResetWarning,0831.4,4.98,000.00,030.8,026.5,000.0,039.2,031.2,34.7,0000.0,0009.40,0004.03,0003.46
2023-06-22 23:15:00,SystemResetWarning,0831.4,5.03,000.00,030.8,026.8,000.0,039.2,031.2,35.2,0000.0,0009.27,0004.00,0003.47
2023-06-22 23:16:00,SystemResetWarning,0831.4,4.98,000.00,030.9,027.1,000.0,039.2,031.4,33.8,0000.0,0009.41,0004.00,0003.48
2023-06-22 23:17:00,SystemResetWarning,0831.3,5.00,000.00,031.0,027.4,000.0,039.2,031.5,33.6,0000.0,0008.76,0004.02,0003.50
2023-06-22 23:18:00,SystemResetWarning,0831.3,5.01,000.00,031.1,027.6,000.0,039.2,031.5,33.9,0000.0,0008.27,0004.07,0003.51
2023-06-22 23:19:00,SystemResetWarning,0831.3,4.99,000.00,031.1,027.8,000.0,039.2,031.5,34.2,0000.0,0008.18,0004.12,0003.53
2023-06-22 23:20:00,SystemResetWarning,0831.3,4.99,000.00,031.1,028.0,000.0,039.2,031.6,34.3,0000.0,0007.96,0004.17,0003.54
2023-06-22 23:21:00,SystemResetWarning,0831.3,5.00,000.00,031.1,028.1,000.0,039.2,031.6,34.1,0000.0,0008.07,0004.18,0003.55
2023-06-22 23:22:00,SystemResetWarning,0831.3,5.01,000.00,031.1,028.2,000.0,039.3,031.7,34.1,0000.0,0007.98,0004.15,0003.56
2023-06-22 23:23:00,SystemResetWarning,0831.3,5.01,000.00,031.1,028.3,000.0,039.3,031.7,34.0,0000.0,0008.05,0004.18,0003.57
2023-06-22 23:24:00,SystemResetWarning,0831.3,5.01,000.00,031.1,028.4,000.0,039.3,031.7,34.0,0000.0,0008.84,0004.21,0003.59
2023-06-22 23:25:00,SystemResetWarning,0831.3,5.00,000.00,031.1,028.5,000.0,039.3,031.8,34.3,0000.0,0009.51,0004.23,0003.62
2023-06-22 23:26:00,SystemResetWarning,0831.3,4.98,000.00,031.2,027.3,000.0,039.3,031.8,34.6,0000.0,0010.32,0004.31,0003.64
2023-06-22 23:27:00,SystemResetWarning,0831.3,5.00,000.00,031.1,025.8,000.0,039.2,031.8,34.3,0000.0,0010.57,0004.35,0003.66
2023-06-22 23:28:00,SystemResetWarning,0831.3,5.00,000.00,031.1,025.4,000.0,039.2,031.6,34.0,0000.0,0010.51,0004.36,0003.68
2023-06-22 23:29:00,SystemResetWarning,0831.3,5.00,000.00,030.9,025.7,000.0,039.2,031.3,34.4,0000.0,0010.71,0004.39,0003.69
2023-06-22 23:30:00,SystemResetWarning,0831.3,4.99,000.00,030.9,026.1,000.0,039.2,031.3,35.3,0000.0,0011.11,0004.43,0003.72
2023-06-22 23:31:00,SystemResetWarning,0831.3,5.04,000.00,031.0,026.5,000.0,039.2,031.5,35.0,0000.0,0011.04,0004.44,0003.74
2023-06-22 23:32:00,SystemResetWarning,0831.3,4.96,000.00,031.1,026.9,000.0,039.2,031.6,34.6,0000.0,0010.92,0004.43,0003.76
2023-06-22 23:33:00,SystemResetWarning,0831.3,5.01,000.00,031.2,027.2,000.0,039.2,031.6,34.5,0000.0,0011.29,0004.48,0003.78
2023-06-22 23:34:00,SystemResetWarning,0831.2,5.00,000.00,031.3,027.5,000.0,039.2,031.6,34.8,0000.0,0011.40,0004.52,0003.79
2023-06-22 23:35:00,SystemResetWarning,0831.3,5.02,000.00,031.4,027.7,000.0,039.3,031.7,34.9,0000.0,0011.27,0004.58,0003.81
2023-06-22 23:36:00,SystemResetWarning,0831.3,4.98,000.00,031.5,027.9,000.0,039.3,031.8,33.5,0000.0,0010.86,0004.61,0003.81
2023-06-22 23:37:00,SystemResetWarning,0831.2,5.01,000.00,031.6,028.1,000.0,039.3,031.8,34.0,0000.0,0010.24,0004.61,0003.82
2023-06-22 23:38:00,SystemResetWarning,0831.3,5.01,000.00,031.6,028.2,000.0,039.4,031.9,34.0,0000.0,0009.93,0004.59,0003.82
2023-06-22 23:39:00,SystemResetWarning,0831.3,4.99,000.00,031.7,028.3,000.0,039.5,031.9,34.6,0000.0,0010.06,0004.66,0003.84
2023-06-22 23:40:00,SystemResetWarning,0831.2,4.98,000.00,031.7,027.9,000.0,039.5,031.9,34.2,0001.5,0010.20,0004.62,0003.84
2023-06-22 23:41:00,SystemResetWarning,0831.2,5.00,000.00,031.7,026.1,000.0,039.4,031.8,33.7,0003.3,0010.18,0004.62,0003.84
2023-06-22 23:42:00,SystemResetWarning,0831.2,5.00,000.00,031.7,025.4,000.0,039.4,031.8,34.1,0003.5,0011.22,0004.64,0003.85
2023-06-22 23:43:00,SystemResetWarning,0831.2,5.01,000.00,031.5,025.5,000.0,039.4,031.4,34.5,0003.7,0011.61,0004.64,0003.84
2023-06-22 23:44:00,SystemResetWarning,0831.2,5.01,000.00,031.4,025.9,000.0,039.4,031.4,34.5,0003.9,0011.26,0004.63,0003.86
2023-06-22 23:45:00,SystemResetWarning,0831.2,4.99,000.00,031.3,026.3,000.0,039.5,031.4,34.9,0003.9,0011.68,0004.63,0003.87
2023-06-22 23:46:00,SystemResetWarning,0831.1,5.01,000.00,031.3,026.7,000.0,039.5,031.5,35.3,0003.9,0011.53,0004.58,0003.87
2023-06-22 23:47:00,SystemResetWarning,0831.1,5.02,000.00,031.5,027.1,000.0,039.5,031.6,35.0,0003.9,0011.13,0004.55,0003.87
2023-06-22 23:48:00,SystemResetWarning,0831.1,4.97,000.00,031.7,027.4,000.0,039.5,031.8,34.6,0003.6,0011.13,0004.54,0003.88
2023-06-22 23:49:00,SystemResetWarning,0831.1,5.01,000.00,031.9,027.6,000.0,039.5,031.9,33.9,0003.6,0012.67,0004.56,0003.89
2023-06-22 23:50:00,SystemResetWarning,0831.1,5.01,000.00,032.0,027.8,000.0,039.5,031.9,33.6,0003.8,0014.01,0004.51,0003.88
2023-06-22 23:51:00,SystemResetWarning,0831.1,5.00,000.00,032.0,028.0,000.0,039.6,031.9,33.3,0003.6,0013.79,0004.51,0003.86
2023-06-22 23:52:00,SystemResetWarning,0831.2,4.99,000.00,032.0,028.1,000.0,039.7,031.9,33.1,0000.0,0013.40,0004.50,0003.85
2023-06-22 23:53:00,SystemResetWarning,0831.2,5.00,000.00,032.0,028.3,000.0,039.7,032.0,32.9,0000.0,0013.54,0004.48,0003.85
2023-06-22 23:54:00,SystemResetWarning,0831.2,4.99,000.00,032.0,028.4,000.0,039.8,032.0,33.4,0000.0,0012.94,0004.48,0003.86
2023-06-22 23:55:00,SystemResetWarning,0831.2,5.00,000.00,032.0,028.4,000.0,039.8,032.0,33.2,0000.0,0013.04,0004.50,0003.83
2023-06-22 23:56:00,SystemResetWarning,0831.2,5.00,000.00,032.1,027.0,000.0,039.8,032.1,33.3,0000.0,0012.74,0004.51,0003.82
2023-06-22 23:57:00,SystemResetWarning,0831.1,5.00,000.00,032.0,025.6,000.0,039.8,032.0,33.7,0000.0,0012.62,0004.52,0003.80
2023-06-22 23:58:00,SystemResetWarning,0831.1,5.01,000.00,032.0,025.4,000.0,039.7,031.7,34.1,0000.9,0013.21,0004.53,0003.78
2023-06-22 23:59:00,SystemResetWarning,0830.9,5.01,000.00,031.7,025.7,000.0,039.8,031.5,34.7,0002.5,0013.53,0004.54,0003.76
